Location: Hains Lake
(37.8540°N, 99.8578°W)
Time: 23:24:03
(UTC+00:00)

H-2A R/B - Pass Details

Date: 11 December 2019
Orbit: 258 x 32825 km, 28.4° (Epoch: 24 January)

Event Time Altitude Azimuth Distance (km) Brightness Sun altitude
Exits shadow 12:36:48 - 237° (WSW) 1,923 3.7 -13.1°
Reaches altitude 10° 12:37:06 10° 233° (SW) 1,837 3.7 -13.0°
Maximum altitude 12:40:28 28° 171° (S) 1,822 4.3 -12.4°
Drops below altitude 10° 12:52:01 10° 118° (ESE) 6,601 8.4 -10.3°
Sets 13:06:29 0° 112° (ESE) 11,978 10.8 -7.6°
